Florala, AL

8:54 PM CDT on May 27, 2017 (GMT -0500)
Florala

Weather History for K0J4 - November, 2012

Change the Weather History Date:

Friday, November 9, 2012

  Actual Average (KCEW) Record (KCEW)
Temperature  
Mean Temperature 53 °F -  
Max Temperature 70 °F 71 °F 82 °F (1950)
Min Temperature 36 °F 48 °F 22 °F (1976)
Degree Days  
Heating Degree Days 12    
Growing Degree Days 3 (Base 50)    
Moisture  
Dew Point 40 °F    
Average Humidity 68    
Maximum Humidity 89    
Minimum Humidity 31    
Precipitation  
Precipitation 0.00 in - - ()
Sea Level Pressure  
Sea Level Pressure 30.26 in    
Wind  
Wind Speed 1 mph (ENE)    
Max Wind Speed 6 mph    
Max Gust Speed -    
Visibility 10 miles    
Events      
Averages and records for this station are not official NWS values.
T = Trace of Precipitation, MM = Missing Value Source: NWS Daily Summary

Daily Weather History Graph

Daily Weather History Graph

Search for Another Location

Airport or City:

Trip Planner

Search our weather history database for the weather conditions in past years. The results will help you decide how hot, cold, wet, or windy it might be!

Date:

Astronomy

Nov. 09, 2012 Rise Set
Actual Time 6:07 AM CST 4:50 PM CST
Civil Twilight 5:42 AM CST 5:15 PM CST
Nautical Twilight 5:13 AM CST 5:44 PM CST
Astronomical Twilight 4:44 AM CST 6:13 PM CST
Moon 1:23 AM CST (11/9) 1:47 PM CST (11/9)
Length of Visible Light 11h 33m
Length of Day
10h 42m
Waning Crescent, 23% of the Moon is Illuminated
Nov 9
Waning Crescent
Nov 13
New
Nov 20
First Quarter
Nov 28
Full
Dec 6
Last Quarter

Hourly Weather History & Observations

Time (CST) Temp. Dew Point Humidity Pressure Visibility Wind Dir Wind Speed Gust Speed Precip Events Conditions
12:58 AM 39.0 °F 36.0 °F 89% 30.23 in - Calm Calm - N/A   Clear
1:58 AM 39.0 °F 36.0 °F 89% 30.23 in - Calm Calm - N/A   Clear
2:58 AM 37.9 °F 34.0 °F 86% 30.23 in - Calm Calm - N/A   Clear
3:58 AM 37.0 °F 34.0 °F 89% 30.24 in - Calm Calm - N/A   Clear
4:58 AM 37.0 °F 34.0 °F 89% 30.26 in - Calm Calm - N/A   Clear
5:58 AM 36.0 °F 33.1 °F 89% 30.28 in - Calm Calm - N/A   Clear
6:58 AM 41.0 °F 37.9 °F 89% 30.30 in - Calm Calm - N/A   Clear
7:58 AM 53.1 °F 44.1 °F 71% 30.31 in 9.0 mi Calm Calm - N/A   Clear
8:58 AM 59.0 °F 44.1 °F 58% 30.33 in 10.0 mi Calm Calm - N/A   Clear
9:58 AM 64.0 °F 41.0 °F 43% 30.32 in 10.0 mi Calm Calm - N/A   Clear
10:58 AM 66.9 °F 41.0 °F 39% 30.31 in 10.0 mi NNE 3.5 mph - N/A   Clear
11:58 AM 69.1 °F 39.9 °F 35% 30.27 in 10.0 mi NNE 5.8 mph - N/A   Clear
12:58 PM 70.0 °F 39.9 °F 33% 30.25 in 10.0 mi East 3.5 mph - N/A   Clear
1:58 PM 70.0 °F 37.9 °F 31% 30.22 in 10.0 mi Calm Calm - N/A   Clear
2:58 PM 70.0 °F 37.9 °F 31% 30.22 in 10.0 mi Calm Calm - N/A   Clear
3:58 PM 69.1 °F 39.9 °F 35% 30.22 in 10.0 mi ESE 3.5 mph - N/A   Clear
4:58 PM 57.9 °F 46.0 °F 65% 30.24 in 10.0 mi Calm Calm - N/A   Clear
5:58 PM 53.1 °F 45.0 °F 74% 30.25 in 10.0 mi Calm Calm - N/A   Clear
6:58 PM 50.0 °F 44.1 °F 80% 30.26 in 10.0 mi Calm Calm - N/A   Clear
7:58 PM 48.0 °F 43.0 °F 83% 30.26 in 10.0 mi SW 3.5 mph - N/A   Clear
8:58 PM 48.0 °F 43.0 °F 83% 30.27 in 10.0 mi Calm Calm - N/A   Clear
9:58 PM 48.0 °F 43.0 °F 83% 30.27 in 10.0 mi Calm Calm - N/A   Clear
10:58 PM 46.0 °F 42.1 °F 86% 30.27 in 10.0 mi Calm Calm - N/A   Clear
11:58 PM 45.0 °F 41.0 °F 86% 30.27 in 10.0 mi Calm Calm - N/A   Clear